Other Public Products
Issued by NWS Grand Forks, ND

Home | Current Version | Previous Version | Text Only | Print | Product List | Glossary On
Versions: 1 2 3 4 5 6 7 8 9 10 11 12 13 14 15 16 17 18 19 20 21 22 23 24 25 26 27 28 29 30 31 32 33 34 35 36 37 38 39 40 41 42 43 44 45 46 47 48 49 50
000
FPUS83 KFGF 140831
OPUFGF
PRAIRIE TO PINES WEATHER ROUNDUP
NATIONAL WEATHER SERVICE EASTERN NORTH DAKOTA/GRAND FORKS ND
300 AM CDT MON JUL 14 2014

 **SATELLITE DATA USED TO AUGMENT SKY COVER AT AUTOMATED STATIONS**
 *****  WEATHER ACROSS EASTERN NORTH DAKOTA  *****

CITY           SKY/WX    TMP DP  RH WIND       PRES   REMARKS
GRAND FORKS    MOCLDY    50  46  87 N15G24    30.00R
GRAND FORKS AF MOCLDY    52  50  93 N16       30.01R
GRAND CITY NWS   N/A     50 N/A N/A N6          N/A
BUXTON           N/A     52  52  98 NW18        N/A
DEVILS LAKE    MOCLDY    54  45  71 N15G24    30.05R
FARGO          CLOUDY    56  49  77 NW14      29.98R
WAHPETON ARPT  PTSUNNY   59  43  55 NW14G22   29.97R
$$

 *****  WEATHER ACROSS CENTRAL AND WESTERN NORTH DAKOTA  *****

CITY           SKY/WX    TMP DP  RH WIND       PRES   REMARKS
JAMESTOWN      MOCLDY    57  45  64 NW18G25   30.04R
BISMARCK       CLEAR     57  47  69 N8        30.14R
MINOT          CLEAR     52  45  77 NW10      30.15R
MINOT AFB      CLEAR     51  48  87 NW9       30.15R
GARRISON         N/A     52  47  83 N8        30.16R
WILLISTON      CLEAR     51  45  79 N3        30.23R
DICKINSON      CLEAR     45  41  86 NW8       30.19S
HETTINGER      CLEAR     46  41  82 NW7       30.21R
$$

 *****  OTHER OBSERVATIONS NORTHEAST NORTH DAKOTA  *****

CITY           SKY/WX    TMP DP  RH WIND       PRES   REMARKS
WALHALLA         N/A     48  48 100 NW12        N/A
LANGDON        CLOUDY    48  46  93 N12       30.06R
CAVALIER       PTSUNNY   48  46  93 N13G20    30.04R
GRAFTON        CLOUDY    50  48  93 NW15G23   30.02R
CANDO          PTSUNNY   52  48  87 N12       30.09R
FORT TOTTEN      N/A     55  49  80 N8        29.95S
ROLLA          PTSUNNY   48  48 100 N15       30.12R
RUGBY          CLOUDY    50  48  93 N15G21    30.12R
 ***** THE ABOVE OBSERVATIONS ARE NON NWS ARE NOT QUALITY
        CONTROLLED AND MAY MIS-REPORT RAIN FOR SNOW...
$$

 *****  OTHER OBSERVATIONS SOUTHEAST NORTH DAKOTA *****

CITY           SKY/WX    TMP DP  RH WIND       PRES   REMARKS
COOPERSTOWN    NOT AVBL
VALLEY CITY    CLOUDY    57  48  72 N16G22    30.03R
OAKES          NOT AVBL
GWINNER        PTSUNNY   61  45  55 NW17G23   30.02R
BUFFALO          N/A     55  46  72 NW14        N/A
WYNDMERE       NOT AVBL
 ***** THE ABOVE OBSERVATIONS ARE NON NWS ARE NOT QUALITY
       CONTROLLED AND MAY MIS-REPORT RAIN FOR SNOW...
$$

  *****  WEATHER ACROSS NORTHERN MINNESOTA  *****

CITY           SKY/WX    TMP DP  RH WIND       PRES   REMARKS
FLAG ISLAND    CLOUDY    54  50  87 N22       29.87R
WARROAD        CLOUDY    48  45  87 NW15G24   29.91S
ROSEAU         CLOUDY    48  43  81 NW14      29.93R
HALLOCK        CLOUDY    48  46  93 N16       30.00R
THF RVR FALLS  MOCLDY    48  45  87 NW21      29.95R
HALSTAD          N/A     52  48  86 NW16        N/A
FOSSTON        LGT RAIN  48  46  93 NW17G30   29.94R
BAUDETTE       RAIN      52  50  93 N13G22    29.85R FOG
WASKISH        CLOUDY    50  46  87 W14G22    29.86S
CROOKSTON      MOCLDY    48  48 100 N18G24    29.98R
$$
  *****  WEATHER ACROSS CENTRAL AND WEST MINNESOTA  *****

CITY           SKY/WX    TMP DP  RH WIND       PRES   REMARKS
BEMIDJI        CLOUDY    49  47  91 NW13G21   29.89S
PARK RAPIDS    CLOUDY    51  49  92 NW15      29.90R
WADENA         CLOUDY    55  46  71 NW18G25   29.91S
DETROIT LAKES  PTCLDY    52  48  87 NW17G24   29.96R
MOORHEAD       CLOUDY    55  54  94 N14G20    29.99R
FERGUS FALLS   CLOUDY    57  45  62 NW12      29.95S
ELBOW LAKE     PTSUNNY   57  48  72 NW9       29.95R
MORRIS MN      CLOUDY    59  50  72 NW10      29.95R
STAPLES        MOCLDY    55  46  71 W14       29.89F
WHEATON        MOCLDY    61  46  59 NW10G18   29.98R
$$
  *****  WEATHER ELSEWHERE ACROSS MINNESOTA  *****

CITY           SKY/WX    TMP DP  RH WIND       PRES   REMARKS
DULUTH         PTCLDY    50  47  89 W7        29.82F
INTRNTL FALLS  RAIN      49  48  97 W7        29.80S FOG
ELY            LGT RAIN  50  48  93 W6        29.79S
CLOQUET        PTCLDY    52  48  87 SW6       29.83F
BRAINERD       MOCLDY    63  47  55 W14       29.88F
HIBBING        LGT RAIN  52  49  89 W6        29.82S
ALEXANDRIA     CLOUDY    60  46  59 NW14      29.94S
SAINT CLOUD    CLOUDY    57  51  80 CALM      29.89F
MINNEAPOLIS    MOCLDY    64  50  60 NW8       29.89S
$$

  *****  WEATHER ACROSS SOUTH DAKOTA  *****

CITY           SKY/WX    TMP DP  RH WIND       PRES   REMARKS
SIOUX FALLS    CLEAR     57  47  69 W7        30.00S
BROOKINGS      NOT AVBL
WATERTOWN      CLEAR     52  48  86 N5        30.00R
HURON          CLEAR     52  48  86 W7        30.03R
SISSETON         N/A     60  49  66 N12       29.97S
ABERDEEN       PTCLDY    53  48  83 NW10      30.04R
MITCHELL       CLEAR     56  47  71 W8        30.04S
PIERRE         CLEAR     54  49  83 NW10      30.09S
MOBRIDGE       CLEAR     51  48  89 N6        30.10R
RAPID CITY     CLEAR     58  52  80 N12       30.19S
$$

  *****  SOME WEATHER IN NEARBY STATES *****

CITY           SKY/WX    TMP DP  RH WIND       PRES   REMARKS
GLASGOW MT     CLEAR     51  44  77 NE9       30.29R
GREAT FALLS MT PTCLDY    66  49  54 E10       30.27R
CHEYENNE WY    CLEAR     61  51  70 VRB5      30.32R
SCOTTSBLUFF NE MOCLDY    68  58  70 S3        30.19R
OMAHA NE       MOCLDY    70  65  84 N7        29.98R
DES MOINES IA  PTCLDY    70  66  87 NW5       29.92S
DAVENPORT IA     N/A     65  62  90 S3        29.90F
CHICAGO IL     PTCLDY    65  52  62 CALM      29.88F
EAU CLAIRE WI  CLOUDY    58  55  90 W6        29.85S
LA CROSSE WI   CLEAR     60  56  86 S6        29.87S
$$

  *****  SOME NATIONAL WEATHER *****

CITY           SKY/WX    TMP DP  RH WIND       PRES   REMARKS
LA GUARDIA NY  LGT RAIN  73  70  90 SW8       29.89R
RALEIGH NC     PTCLDY    76  70  82 SW9       30.01F
ATLANTA GA     PTCLDY    75  70  84 CALM      30.04F
NEW ORLEANS LA PTCLDY    78  74  87 S7        30.02S
OKLAHOMA CITY  CLOUDY    79  66  64 NW5       30.01R
ALBUQUERQUE NM CLOUDY    71  55  56 N5        30.29F
SALT LAKE CITY PTCLDY    75  48  38 W3        30.08S
LOS ANGELES CA PTCLDY    70  62  76 E9        29.93S
BOISE ID       PTCLDY    89  41  18 E9        29.93S
SEATTLE WA     MOCLDY    65  57  75 S10       30.11R
$$

*** WEATHER ACROSS MANITOBA...SASKATCHEWAN AND ONTARIO ***
                ***ONTARIO***

CITY           SKY/WX    TMP DP  RH WIND       PRES   REMARKS
GERALDTON      MOCLDY    50  48  93 W2        29.73F
THUNDER BAY    CLEAR     50  48  93 CALM      29.78S
SIOUX LOOKOUT  MOCLDY    43  43 100 N2        29.81R
TORONTO        PTCLDY    63  50  63 N7        29.89R
BIG TROUT LK   CLOUDY    48  45  87 N13G24    29.91R
PICKLE LAKE    NOT AVBL
DRYDEN         PTCLDY    48  48 100 N7        29.81R
KENORA         LGT RAIN  50  48  93 N8        29.87  FOG
$$
                *** MANITOBA***

CITY           SKY/WX    TMP DP  RH WIND       PRES   REMARKS
BRANDON        MOCLDY    52  48  87 N13       30.14R
DAUPHIN        PTCLDY    50  48  93 N7        30.17R
ISLAND LAKE    MOCLDY    54  50  87 NE7       30.09R
PILOT MOUND      N/A     50  46  87 N14G24      N/A
THE PAS        CLEAR     55  52  88 N6        30.24R
THOMPSON       MOCLDY    52  50  93 N6        30.22R
WINNIPEG       PTCLDY    46  45  93 N14G21    30.04R
LYNN LAKE      CLEAR     46  45  93 N8        30.29R
CHURCHILL      MOCLDY    45  43  93 N14       30.24R
GILLAM         PTCLDY    46  45  93 N7        30.19R
$$
                ***SASKATCHEWAN***

CITY           SKY/WX    TMP DP  RH WIND       PRES   REMARKS
ESTEVAN        CLEAR     48  45  87 N6        30.23R
KINDERSLEY     CLEAR     48  43  81 E7        30.33S
LLOYDMINSTER   CLEAR     50  43  76 SE8       30.32S
PRINCE ALBERT  CLEAR     45  43  93 VRB2      30.32R
REGINA         CLEAR     52  46  82 N7        30.28
YORKTON        CLEAR     50  46  87 N9        30.23R



USA.gov is the U.S. government's official web portal to all federal, state and local government web resources and services.